Time,TemperatureF,DewpointF,PressureIn,WindDirection,WindDirectionDegrees,WindSpeedMPH,WindSpeedGustMPH,Humidity,HourlyPrecipIn,Conditions,Clouds,dailyrainin,SoftwareType,DateUTC
2013-04-12 00:00:00,58.7,56.4,29.60,South,179,2.0,2.0,92,0.04,,,0.11,Wunderground v.1.15,2013-04-12 04:00:00,
2013-04-12 00:05:00,58.7,57.3,29.56,SSE,151,1.0,2.0,95,0.04,,,0.12,Wunderground v.1.15,2013-04-12 04:05:00,
2013-04-12 00:10:00,58.6,57.2,29.56,SSE,151,1.0,1.0,95,0.07,,,0.13,Wunderground v.1.15,2013-04-12 04:10:00,
2013-04-12 00:15:00,58.4,57.3,29.56,SE,140,2.0,3.0,96,0.07,,,0.13,Wunderground v.1.15,2013-04-12 04:15:00,
2013-04-12 00:20:00,58.4,57.3,29.55,SE,133,2.0,2.0,96,0.05,,,0.13,Wunderground v.1.15,2013-04-12 04:20:00,
2013-04-12 00:30:00,58.4,57.3,29.55,SE,127,3.0,3.0,96,0.00,,,0.13,Wunderground v.1.15,2013-04-12 04:30:00,
2013-04-12 00:40:00,58.3,57.2,29.55,ESE,112,5.0,6.0,96,0.00,,,0.14,Wunderground v.1.15,2013-04-12 04:40:00,
2013-04-12 00:50:00,58.1,57.3,29.48,NNE,25,5.0,5.0,97,0.06,,,0.15,Wunderground v.1.15,2013-04-12 04:50:00,
2013-04-12 01:00:00,58.1,57.3,29.48,SSW,202,2.0,2.0,97,0.05,,,0.15,Wunderground v.1.15,2013-04-12 05:00:00,
2013-04-12 01:10:00,58.3,57.5,29.51,South,184,2.0,2.0,97,0.00,,,0.15,Wunderground v.1.15,2013-04-12 05:10:00,
2013-04-12 01:15:00,58.3,57.5,29.51,South,175,2.0,2.0,97,0.00,,,0.15,Wunderground v.1.15,2013-04-12 05:15:00,
2013-04-12 01:20:00,58.3,57.5,29.50,South,175,1.0,2.0,97,0.00,,,0.15,Wunderground v.1.15,2013-04-12 05:20:00,
2013-04-12 01:30:00,58.4,57.6,29.50,South,175,1.0,2.0,97,0.00,,,0.15,Wunderground v.1.15,2013-04-12 05:30:00,
2013-04-12 01:40:00,58.4,57.6,29.50,South,175,1.0,2.0,97,0.00,,,0.15,Wunderground v.1.15,2013-04-12 05:40:00,
2013-04-12 01:50:00,58.4,57.6,29.50,South,175,1.0,2.0,97,0.00,,,0.15,Wunderground v.1.15,2013-04-12 05:50:00,
2013-04-12 02:00:00,58.7,57.9,29.50,South,175,2.0,2.0,97,0.00,,,0.15,Wunderground v.1.15,2013-04-12 06:00:00,
2013-04-12 02:10:00,58.7,57.6,29.51,South,175,1.0,1.0,96,0.00,,,0.15,Wunderground v.1.15,2013-04-12 06:10:00,
2013-04-12 02:15:00,58.7,57.6,29.51,South,174,2.0,4.0,96,0.00,,,0.15,Wunderground v.1.15,2013-04-12 06:15:00,
2013-04-12 02:20:00,58.7,57.6,29.50,South,174,2.0,2.0,96,0.00,,,0.15,Wunderground v.1.15,2013-04-12 06:20:00,
2013-04-12 02:30:00,58.9,57.8,29.50,SSE,147,2.0,3.0,96,0.00,,,0.15,Wunderground v.1.15,2013-04-12 06:30:00,
2013-04-12 02:40:00,59.2,58.1,29.50,SSE,168,4.0,4.0,96,0.00,,,0.15,Wunderground v.1.15,2013-04-12 06:40:00,
2013-04-12 02:50:00,59.3,57.9,29.49,SSE,165,3.0,3.0,95,0.00,,,0.15,Wunderground v.1.15,2013-04-12 06:50:00,
2013-04-12 02:55:00,59.3,57.9,29.49,SE,143,2.0,3.0,95,0.00,,,0.15,Wunderground v.1.15,2013-04-12 06:55:00,
2013-04-12 03:05:00,59.3,57.6,29.47,SE,128,2.0,6.0,94,0.00,,,0.15,Wunderground v.1.15,2013-04-12 07:05:00,
2013-04-12 03:15:00,59.5,57.8,29.47,SSE,168,3.0,3.0,94,0.00,,,0.15,Wunderground v.1.15,2013-04-12 07:15:00,
2013-04-12 03:20:00,59.5,57.8,29.45,SSW,213,2.0,4.0,94,0.00,,,0.15,Wunderground v.1.15,2013-04-12 07:20:00,
2013-04-12 03:30:00,59.3,57.6,29.45,SW,232,2.0,2.0,94,0.00,,,0.15,Wunderground v.1.15,2013-04-12 07:30:00,
2013-04-12 03:40:00,59.3,57.6,29.47,SW,232,0.0,0.0,94,0.00,,,0.15,Wunderground v.1.15,2013-04-12 07:40:00,
2013-04-12 03:50:00,59.3,57.6,29.46,SW,232,0.0,0.0,94,0.00,,,0.15,Wunderground v.1.15,2013-04-12 07:50:00,
2013-04-12 03:55:00,59.3,57.6,29.46,SW,232,0.0,0.0,94,0.00,,,0.15,Wunderground v.1.15,2013-04-12 07:55:00,
2013-04-12 04:05:00,59.3,57.6,29.45,SW,232,0.0,0.0,94,0.00,,,0.15,Wunderground v.1.15,2013-04-12 08:05:00,
2013-04-12 04:10:00,59.3,57.6,29.45,SW,232,0.0,0.0,94,0.00,,,0.15,Wunderground v.1.15,2013-04-12 08:10:00,
2013-04-12 04:20:00,59.5,57.8,29.45,SW,232,1.0,1.0,94,0.00,,,0.15,Wunderground v.1.15,2013-04-12 08:20:00,
2013-04-12 04:30:00,59.5,57.8,29.45,SSE,152,1.0,6.0,94,0.00,,,0.15,Wunderground v.1.15,2013-04-12 08:30:00,
2013-04-12 04:35:00,59.6,57.9,29.45,SE,140,2.0,6.0,94,0.00,,,0.16,Wunderground v.1.15,2013-04-12 08:35:00,
2013-04-12 04:45:00,59.8,58.1,29.45,SSE,167,2.0,3.0,94,0.10,,,0.18,Wunderground v.1.15,2013-04-12 08:45:00,
2013-04-12 04:55:00,59.8,58.1,29.45,WSW,256,2.0,2.0,94,0.04,,,0.18,Wunderground v.1.15,2013-04-12 08:55:00,
2013-04-12 05:00:00,59.6,57.9,29.45,WSW,247,1.0,1.0,94,0.00,,,0.19,Wunderground v.1.15,2013-04-12 09:00:00,
2013-04-12 05:10:00,59.6,57.9,29.47,SSW,212,1.0,1.0,94,0.00,,,0.19,Wunderground v.1.15,2013-04-12 09:10:00,
2013-04-12 05:20:00,59.6,58.2,29.47,WSW,251,2.0,2.0,95,0.00,,,0.19,Wunderground v.1.15,2013-04-12 09:20:00,
2013-04-12 05:25:00,59.6,58.2,29.47,West,265,3.0,3.0,95,0.00,,,0.19,Wunderground v.1.15,2013-04-12 09:25:00,
2013-04-12 05:35:00,59.6,57.9,29.48,West,278,4.0,6.0,94,0.00,,,0.19,Wunderground v.1.15,2013-04-12 09:35:00,
2013-04-12 05:40:00,59.6,57.9,29.48,WSW,250,3.0,3.0,94,0.00,,,0.19,Wunderground v.1.15,2013-04-12 09:40:00,
2013-04-12 05:50:00,59.3,57.6,29.50,WSW,241,5.0,5.0,94,0.00,,,0.19,Wunderground v.1.15,2013-04-12 09:50:00,
2013-04-12 06:00:00,58.6,56.3,29.50,West,274,4.0,6.0,92,0.00,,,0.20,Wunderground v.1.15,2013-04-12 10:00:00,
2013-04-12 06:10:00,57.6,54.7,29.52,NW,320,5.0,8.0,90,0.00,,,0.20,Wunderground v.1.15,2013-04-12 10:10:00,
2013-04-12 06:15:00,57.5,54.6,29.52,WSW,258,5.0,8.0,90,0.00,,,0.20,Wunderground v.1.15,2013-04-12 10:15:00,
2013-04-12 06:20:00,57.2,54.3,29.52,WNW,291,5.0,5.0,90,0.00,,,0.20,Wunderground v.1.15,2013-04-12 10:20:00,
2013-04-12 06:30:00,56.9,54.3,29.52,West,278,2.0,2.0,91,0.00,,,0.20,Wunderground v.1.15,2013-04-12 10:30:00,
2013-04-12 06:40:00,56.6,54.0,29.55,West,270,2.0,2.0,91,0.00,,,0.20,Wunderground v.1.15,2013-04-12 10:40:00,
2013-04-12 06:50:00,56.2,53.6,29.58,West,272,4.0,4.0,91,0.00,,,0.20,Wunderground v.1.15,2013-04-12 10:50:00,
2013-04-12 07:00:00,55.7,52.2,29.58,West,278,5.0,5.0,88,0.00,,,0.20,Wunderground v.1.15,2013-04-12 11:00:00,
2013-04-12 07:05:00,55.6,52.1,29.58,WSW,239,4.0,5.0,88,0.00,,,0.20,Wunderground v.1.15,2013-04-12 11:05:00,
2013-04-12 07:15:00,55.1,52.2,29.58,WSW,253,2.0,3.0,90,0.00,,,0.20,Wunderground v.1.15,2013-04-12 11:15:00,
2013-04-12 07:20:00,55.0,52.1,29.59,West,261,2.0,4.0,90,0.00,,,0.20,Wunderground v.1.15,2013-04-12 11:20:00,
2013-04-12 07:30:00,54.7,51.8,29.59,WSW,257,4.0,4.0,90,0.00,,,0.20,Wunderground v.1.15,2013-04-12 11:30:00,
2013-04-12 07:40:00,54.2,50.7,29.60,West,267,4.0,4.0,88,0.00,,,0.20,Wunderground v.1.15,2013-04-12 11:40:00,
2013-04-12 07:45:00,54.1,50.3,29.60,SW,229,3.0,10.0,87,0.00,,,0.20,Wunderground v.1.15,2013-04-12 11:45:00,
2013-04-12 07:50:00,54.1,50.0,29.62,SW,219,4.0,8.0,86,0.00,,,0.21,Wunderground v.1.15,2013-04-12 11:50:00,
2013-04-12 08:00:00,53.9,49.5,29.62,WNW,282,4.0,4.0,85,0.00,,,0.21,Wunderground v.1.15,2013-04-12 12:00:00,
2013-04-12 08:10:00,53.8,49.4,29.63,South,181,3.0,8.0,85,0.00,,,0.21,Wunderground v.1.15,2013-04-12 12:10:00,
2013-04-12 08:20:00,53.6,48.9,29.65,West,271,3.0,5.0,84,0.00,,,0.21,Wunderground v.1.15,2013-04-12 12:20:00,
2013-04-12 08:30:00,53.5,48.5,29.65,WNW,282,4.0,4.0,83,0.00,,,0.21,Wunderground v.1.15,2013-04-12 12:30:00,
2013-04-12 08:35:00,53.3,48.3,29.66,South,191,5.0,11.0,83,0.00,,,0.21,Wunderground v.1.15,2013-04-12 12:35:00,
2013-04-12 08:45:00,53.1,47.4,29.66,WSW,256,6.0,6.0,81,0.00,,,0.21,Wunderground v.1.15,2013-04-12 12:45:00,
2013-04-12 08:50:00,52.9,46.6,29.67,SW,222,6.0,6.0,79,0.00,,,0.21,Wunderground v.1.15,2013-04-12 12:50:00,
2013-04-12 09:00:00,52.3,45.6,29.67,WSW,244,7.0,7.0,78,0.00,,,0.21,Wunderground v.1.15,2013-04-12 13:00:00,
2013-04-12 09:10:00,51.6,44.6,29.69,West,271,5.0,11.0,77,0.00,,,0.21,Wunderground v.1.15,2013-04-12 13:10:00,
2013-04-12 09:15:00,51.3,44.3,29.69,WNW,292,7.0,11.0,77,0.00,,,0.21,Wunderground v.1.15,2013-04-12 13:15:00,
2013-04-12 09:25:00,51.3,43.6,29.70,WSW,241,5.0,6.0,75,0.00,,,0.21,Wunderground v.1.15,2013-04-12 13:25:00,
2013-04-12 09:35:00,51.7,41.9,29.71,WNW,299,7.0,7.0,69,0.00,,,0.21,Wunderground v.1.15,2013-04-12 13:35:00,
2013-04-12 09:40:00,52.0,42.1,29.71,West,275,6.0,6.0,69,0.00,,,0.21,Wunderground v.1.15,2013-04-12 13:40:00,
2013-04-12 09:50:00,51.7,41.5,29.71,West,280,5.0,14.0,68,0.00,,,0.21,Wunderground v.1.15,2013-04-12 13:50:00,
2013-04-12 10:00:00,51.7,41.1,29.71,WSW,248,6.0,6.0,67,0.00,,,0.21,Wunderground v.1.15,2013-04-12 14:00:00,
2013-04-12 10:10:00,52.6,41.9,29.72,SW,229,4.0,4.0,67,0.00,,,0.21,Wunderground v.1.15,2013-04-12 14:10:00,
2013-04-12 10:15:00,52.3,41.3,29.72,WNW,299,4.0,10.0,66,0.00,,,0.21,Wunderground v.1.15,2013-04-12 14:15:00,
2013-04-12 10:20:00,51.7,39.5,29.73,SW,223,7.0,11.0,63,0.00,,,0.21,Wunderground v.1.15,2013-04-12 14:20:00,
2013-04-12 10:30:00,52.0,39.4,29.73,SW,220,6.0,7.0,62,0.00,,,0.21,Wunderground v.1.15,2013-04-12 14:30:00,
2013-04-12 10:40:00,52.5,39.0,29.74,WSW,258,5.0,7.0,60,0.00,,,0.21,Wunderground v.1.15,2013-04-12 14:40:00,
2013-04-12 10:45:00,52.2,39.1,29.74,WSW,253,6.0,7.0,61,0.00,,,0.21,Wunderground v.1.15,2013-04-12 14:45:00,
2013-04-12 10:55:00,52.0,38.1,29.74,West,268,6.0,6.0,59,0.00,,,0.21,Wunderground v.1.15,2013-04-12 14:55:00,
2013-04-12 11:00:00,51.6,38.2,29.74,WSW,257,6.0,6.0,60,0.00,,,0.21,Wunderground v.1.15,2013-04-12 15:00:00,
2013-04-12 11:10:00,52.3,38.0,29.75,WSW,246,7.0,7.0,58,0.00,,,0.21,Wunderground v.1.15,2013-04-12 15:10:00,
2013-04-12 11:20:00,52.0,37.2,29.75,WSW,240,6.0,8.0,57,0.00,,,0.21,Wunderground v.1.15,2013-04-12 15:20:00,
2013-04-12 11:25:00,52.2,37.9,29.75,SW,224,7.0,8.0,58,0.00,,,0.21,Wunderground v.1.15,2013-04-12 15:25:00,
2013-04-12 11:35:00,52.8,38.0,29.75,WNW,287,5.0,6.0,57,0.00,,,0.21,Wunderground v.1.15,2013-04-12 15:35:00,
2013-04-12 11:45:00,53.8,38.0,29.75,West,260,4.0,11.0,55,0.00,,,0.21,Wunderground v.1.15,2013-04-12 15:45:00,
2013-04-12 11:50:00,53.6,37.8,29.75,SW,224,5.0,5.0,55,0.00,,,0.21,Wunderground v.1.15,2013-04-12 15:50:00,
2013-04-12 12:00:00,54.1,38.3,29.75,SSW,202,5.0,5.0,55,0.00,,,0.21,Wunderground v.1.15,2013-04-12 16:00:00,
2013-04-12 12:10:00,55.0,38.2,29.76,West,275,5.0,13.0,53,0.00,,,0.21,Wunderground v.1.15,2013-04-12 16:10:00,
2013-04-12 12:15:00,55.4,38.1,29.76,West,278,6.0,13.0,52,0.00,,,0.21,Wunderground v.1.15,2013-04-12 16:15:00,
2013-04-12 12:25:00,55.3,37.0,29.76,West,274,7.0,7.0,50,0.00,,,0.21,Wunderground v.1.15,2013-04-12 16:25:00,
2013-04-12 12:30:00,55.7,38.3,29.76,West,260,7.0,7.0,52,0.00,,,0.21,Wunderground v.1.15,2013-04-12 16:30:00,
2013-04-12 12:35:00,55.7,38.3,29.77,West,268,5.0,7.0,52,0.00,,,0.21,Wunderground v.1.15,2013-04-12 16:35:00,
2013-04-12 12:45:00,55.7,38.3,29.77,WSW,240,7.0,8.0,52,0.00,,,0.21,Wunderground v.1.15,2013-04-12 16:45:00,
2013-04-12 12:50:00,55.4,38.1,29.76,WNW,287,6.0,6.0,52,0.00,,,0.21,Wunderground v.1.15,2013-04-12 16:50:00,
2013-04-12 13:00:00,55.4,38.5,29.76,WSW,248,6.0,6.0,53,0.00,,,0.21,Wunderground v.1.15,2013-04-12 17:00:00,
2013-04-12 13:10:00,54.8,38.0,29.76,WSW,237,7.0,12.0,53,0.00,,,0.21,Wunderground v.1.15,2013-04-12 17:10:00,
2013-04-12 13:15:00,55.3,39.4,29.76,SSW,193,6.0,12.0,55,0.00,,,0.21,Wunderground v.1.15,2013-04-12 17:15:00,
2013-04-12 13:25:00,55.3,38.4,29.76,West,264,7.0,7.0,53,0.00,,,0.21,Wunderground v.1.15,2013-04-12 17:25:00,
2013-04-12 13:30:00,55.6,39.2,29.76,NW,305,7.0,7.0,54,0.00,,,0.21,Wunderground v.1.15,2013-04-12 17:30:00,
2013-04-12 13:40:00,55.7,38.3,29.77,WNW,287,5.0,5.0,52,0.00,,,0.21,Wunderground v.1.15,2013-04-12 17:40:00,
2013-04-12 13:50:00,55.9,37.5,29.77,WSW,244,7.0,11.0,50,0.00,,,0.21,Wunderground v.1.15,2013-04-12 17:50:00,
2013-04-12 14:00:00,55.6,37.7,29.77,WSW,248,8.0,8.0,51,0.00,,,0.21,Wunderground v.1.15,2013-04-12 18:00:00,
2013-04-12 14:10:00,55.4,36.5,29.77,SW,230,8.0,8.0,49,0.00,,,0.21,Wunderground v.1.15,2013-04-12 18:10:00,
2013-04-12 14:20:00,55.3,34.9,29.77,SSE,157,7.0,7.0,46,0.00,,,0.21,Wunderground v.1.15,2013-04-12 18:20:00,
2013-04-12 14:25:00,55.6,36.7,29.77,West,271,6.0,7.0,49,0.00,,,0.21,Wunderground v.1.15,2013-04-12 18:25:00,
2013-04-12 15:30:00,57.2,34.9,29.76,WSW,257,6.0,7.0,43,0.00,,,0.21,Wunderground v.1.15,2013-04-12 19:30:00,
2013-04-12 15:35:00,57.8,34.8,29.76,West,271,5.0,7.0,42,0.00,,,0.21,Wunderground v.1.15,2013-04-12 19:35:00,
2013-04-12 15:40:00,58.1,34.5,29.76,SSW,198,4.0,10.0,41,0.00,,,0.21,Wunderground v.1.15,2013-04-12 19:40:00,
2013-04-12 15:45:00,57.6,35.8,29.76,SW,236,5.0,10.0,44,0.00,,,0.21,Wunderground v.1.15,2013-04-12 19:45:00,
2013-04-12 15:50:00,57.8,35.4,29.76,SW,224,5.0,6.0,43,0.00,,,0.21,Wunderground v.1.15,2013-04-12 19:50:00,
2013-04-12 16:00:00,58.1,33.9,29.76,WSW,248,6.0,6.0,40,0.00,,,0.21,Wunderground v.1.15,2013-04-12 20:00:00,
2013-04-12 16:05:00,58.1,35.1,29.76,West,264,6.0,6.0,42,0.00,,,0.21,Wunderground v.1.15,2013-04-12 20:05:00,
2013-04-12 16:15:00,58.7,34.4,29.76,West,260,5.0,8.0,40,0.00,,,0.21,Wunderground v.1.15,2013-04-12 20:15:00,
2013-04-12 16:20:00,59.6,33.9,29.76,SSW,205,4.0,4.0,38,0.00,,,0.21,Wunderground v.1.15,2013-04-12 20:20:00,
2013-04-12 16:30:00,59.5,35.1,29.76,West,281,4.0,4.0,40,0.00,,,0.21,Wunderground v.1.15,2013-04-12 20:30:00,
2013-04-12 16:40:00,58.3,34.1,29.75,West,265,7.0,7.0,40,0.00,,,0.21,Wunderground v.1.15,2013-04-12 20:40:00,
2013-04-12 16:50:00,58.3,34.1,29.76,WNW,294,6.0,10.0,40,0.00,,,0.21,Wunderground v.1.15,2013-04-12 20:50:00,
2013-04-12 16:55:00,58.4,34.2,29.76,SSW,199,7.0,10.0,40,0.00,,,0.21,Wunderground v.1.15,2013-04-12 20:55:00,
2013-04-12 17:05:00,58.1,33.9,29.77,West,268,5.0,8.0,40,0.00,,,0.21,Wunderground v.1.15,2013-04-12 21:05:00,
2013-04-12 17:10:00,57.3,34.4,29.77,SW,227,6.0,6.0,42,0.00,,,0.21,Wunderground v.1.15,2013-04-12 21:10:00,
2013-04-12 17:20:00,57.6,34.7,29.77,SSW,200,5.0,7.0,42,0.00,,,0.21,Wunderground v.1.15,2013-04-12 21:20:00,
2013-04-12 17:30:00,57.6,35.2,29.77,WSW,241,5.0,5.0,43,0.00,,,0.21,Wunderground v.1.15,2013-04-12 21:30:00,
2013-04-12 17:35:00,57.5,34.6,29.78,WNW,284,5.0,5.0,42,0.00,,,0.21,Wunderground v.1.15,2013-04-12 21:35:00,
2013-04-12 17:40:00,57.2,34.9,29.78,West,270,4.0,4.0,43,0.00,,,0.21,Wunderground v.1.15,2013-04-12 21:40:00,
2013-04-12 17:50:00,56.7,35.0,29.79,West,265,5.0,7.0,44,0.00,,,0.21,Wunderground v.1.15,2013-04-12 21:50:00,
2013-04-12 18:00:00,56.6,34.3,29.79,West,275,4.0,4.0,43,0.00,,,0.21,Wunderground v.1.15,2013-04-12 22:00:00,
2013-04-12 18:10:00,55.9,35.4,29.80,West,274,4.0,5.0,46,0.00,,,0.21,Wunderground v.1.15,2013-04-12 22:10:00,
2013-04-12 18:20:00,55.6,35.1,29.80,West,281,4.0,6.0,46,0.00,,,0.21,Wunderground v.1.15,2013-04-12 22:20:00,
2013-04-12 18:25:00,55.6,35.1,29.80,WNW,285,4.0,6.0,46,0.00,,,0.21,Wunderground v.1.15,2013-04-12 22:25:00,
2013-04-12 18:30:00,55.6,35.7,29.80,WNW,284,4.0,4.0,47,0.00,,,0.21,Wunderground v.1.15,2013-04-12 22:30:00,
2013-04-12 18:40:00,55.4,35.5,29.81,WNW,289,4.0,4.0,47,0.00,,,0.21,Wunderground v.1.15,2013-04-12 22:40:00,
2013-04-12 18:50:00,55.1,35.2,29.81,West,264,4.0,4.0,47,0.00,,,0.21,Wunderground v.1.15,2013-04-12 22:50:00,
2013-04-12 19:00:00,55.1,35.2,29.81,West,280,3.0,3.0,47,0.00,,,0.21,Wunderground v.1.15,2013-04-12 23:00:00,
2013-04-12 19:10:00,55.1,35.7,29.81,WNW,287,2.0,2.0,48,0.00,,,0.21,Wunderground v.1.15,2013-04-12 23:10:00,
2013-04-12 19:15:00,55.1,36.3,29.81,WNW,287,2.0,2.0,49,0.00,,,0.21,Wunderground v.1.15,2013-04-12 23:15:00,
2013-04-12 19:25:00,55.0,35.7,29.82,West,267,2.0,2.0,48,0.00,,,0.21,Wunderground v.1.15,2013-04-12 23:25:00,
2013-04-12 19:30:00,55.0,35.7,29.82,West,268,2.0,2.0,48,0.00,,,0.21,Wunderground v.1.15,2013-04-12 23:30:00,
2013-04-12 19:40:00,54.8,35.5,29.82,West,268,2.0,4.0,48,0.00,,,0.21,Wunderground v.1.15,2013-04-12 23:40:00,
2013-04-12 19:50:00,54.8,35.5,29.82,West,267,3.0,3.0,48,0.00,,,0.21,Wunderground v.1.15,2013-04-12 23:50:00,
2013-04-12 20:00:00,54.7,35.4,29.82,West,281,2.0,2.0,48,0.00,,,0.21,Wunderground v.1.15,2013-04-13 00:00:00,
2013-04-12 20:10:00,54.7,35.4,29.82,WSW,239,2.0,4.0,48,0.00,,,0.21,Wunderground v.1.15,2013-04-13 00:10:00,
2013-04-12 20:20:00,54.5,35.7,29.83,West,278,2.0,2.0,49,0.00,,,0.21,Wunderground v.1.15,2013-04-13 00:20:00,
2013-04-12 20:25:00,54.5,35.7,29.83,South,191,2.0,5.0,49,0.00,,,0.21,Wunderground v.1.15,2013-04-13 00:25:00,
2013-04-12 20:30:00,54.5,35.7,29.83,WSW,251,3.0,3.0,49,0.00,,,0.21,Wunderground v.1.15,2013-04-13 00:30:00,
2013-04-12 20:40:00,54.5,35.7,29.83,West,263,4.0,4.0,49,0.00,,,0.21,Wunderground v.1.15,2013-04-13 00:40:00,
2013-04-12 20:50:00,54.4,35.6,29.84,WSW,251,3.0,3.0,49,0.00,,,0.21,Wunderground v.1.15,2013-04-13 00:50:00,
2013-04-12 21:00:00,54.2,35.9,29.84,WSW,258,2.0,2.0,50,0.00,,,0.21,Wunderground v.1.15,2013-04-13 01:00:00,
2013-04-12 21:05:00,54.2,35.9,29.84,West,261,2.0,2.0,50,0.00,,,0.21,Wunderground v.1.15,2013-04-13 01:05:00,
2013-04-12 21:15:00,54.1,35.9,29.84,WNW,284,2.0,4.0,50,0.00,,,0.21,Wunderground v.1.15,2013-04-13 01:15:00,
2013-04-12 21:25:00,54.1,36.4,29.85,West,268,2.0,2.0,51,0.00,,,0.21,Wunderground v.1.15,2013-04-13 01:25:00,
2013-04-12 21:30:00,53.9,36.2,29.85,WSW,256,1.0,5.0,51,0.00,,,0.21,Wunderground v.1.15,2013-04-13 01:30:00,
2013-04-12 21:40:00,53.8,36.6,29.85,WSW,237,2.0,7.0,52,0.00,,,0.21,Wunderground v.1.15,2013-04-13 01:40:00,
2013-04-12 21:50:00,53.8,36.6,29.86,WSW,258,3.0,3.0,52,0.00,,,0.21,Wunderground v.1.15,2013-04-13 01:50:00,
2013-04-12 21:55:00,53.8,36.6,29.86,West,260,4.0,4.0,52,0.00,,,0.21,Wunderground v.1.15,2013-04-13 01:55:00,
2013-04-12 22:05:00,53.6,36.9,29.87,West,263,2.0,4.0,53,0.00,,,0.21,Wunderground v.1.15,2013-04-13 02:05:00,
2013-04-12 22:10:00,53.6,36.9,29.87,West,272,2.0,7.0,53,0.00,,,0.21,Wunderground v.1.15,2013-04-13 02:10:00,
2013-04-12 22:20:00,53.5,36.8,29.87,WSW,256,4.0,4.0,53,0.00,,,0.21,Wunderground v.1.15,2013-04-13 02:20:00,
2013-04-12 22:30:00,53.5,36.8,29.87,WNW,288,3.0,3.0,53,0.00,,,0.21,Wunderground v.1.15,2013-04-13 02:30:00,
2013-04-12 22:35:00,53.3,37.1,29.87,West,277,2.0,4.0,54,0.00,,,0.21,Wunderground v.1.15,2013-04-13 02:35:00,
2013-04-12 22:45:00,53.2,37.0,29.87,West,270,2.0,6.0,54,0.00,,,0.21,Wunderground v.1.15,2013-04-13 02:45:00,
2013-04-12 22:50:00,53.1,36.9,29.88,WNW,295,3.0,3.0,54,0.00,,,0.21,Wunderground v.1.15,2013-04-13 02:50:00,
2013-04-12 23:00:00,52.2,37.4,29.88,WNW,282,4.0,5.0,57,0.00,,,0.21,Wunderground v.1.15,2013-04-13 03:00:00,
2013-04-12 23:10:00,51.3,37.0,29.89,WNW,295,3.0,6.0,58,0.00,,,0.00,Wunderground v.1.15,2013-04-13 03:10:00,
2013-04-12 23:20:00,50.8,37.0,29.90,West,281,3.0,7.0,59,0.00,,,0.00,Wunderground v.1.15,2013-04-13 03:20:00,
2013-04-12 23:25:00,50.5,36.7,29.90,West,280,4.0,7.0,59,0.00,,,0.00,Wunderground v.1.15,2013-04-13 03:25:00,
2013-04-12 23:35:00,50.1,36.3,29.90,West,281,3.0,6.0,59,0.00,,,0.00,Wunderground v.1.15,2013-04-13 03:35:00,
2013-04-12 23:40:00,49.9,36.6,29.90,WNW,285,3.0,3.0,60,0.00,,,0.00,Wunderground v.1.15,2013-04-13 03:40:00,
2013-04-12 23:50:00,49.8,35.6,29.91,WNW,284,4.0,8.0,58,0.00,,,0.00,Wunderground v.1.15,2013-04-13 03:50:00,
2013-04-12 23:55:00,49.8,35.2,29.91,WNW,282,5.0,8.0,57,0.00,,,0.00,Wunderground v.1.15,2013-04-13 03:55:00,